GFA504 OBBI-OMDB

Flight info

Callsign GFA504
Flight time 0h 57m
Altitude 25000
Route BHR N697 SODAK P559 VUTEB
Aircraft A20N/M-SDE2E3FGHIRWXY/LB1

Departure

Time 2026-04-25 20:04
Airport Bahrain International Airport (OBBI)

Arrival

Time 2026-04-25 21:02
Airport Dubai International Airport (OMDB)
Time Latitude Longitude Altitude Speed Heading
2026-04-25 19:40 26.26504 50.63619 17 ft 0 kts 211°
2026-04-25 19:55 26.26508 50.63622 16 ft 2 kts 211°
2026-04-25 19:55 26.26521 50.63631 16 ft 2 kts 211°
2026-04-25 19:55 26.26534 50.63640 16 ft 2 kts 206°
2026-04-25 19:55 26.26548 50.63645 18 ft 2 kts 187°
2026-04-25 19:56 26.26562 50.63647 16 ft 2 kts 178°
2026-04-25 19:56 26.26577 50.63645 17 ft 2 kts 163°
2026-04-25 19:56 26.26591 50.63639 17 ft 2 kts 145°
2026-04-25 19:56 26.26603 50.63628 17 ft 2 kts 136°
2026-04-25 19:57 26.26612 50.63618 18 ft 0 kts 131°
2026-04-25 20:00 26.26608 50.63623 19 ft 3 kts 130°
2026-04-25 20:00 26.26594 50.63651 18 ft 9 kts 118°
2026-04-25 20:00 26.26565 50.63729 16 ft 2 kts 81°
2026-04-25 20:00 26.26607 50.63775 16 ft 12 kts 45°
2026-04-25 20:01 26.26464 50.64089 15 ft 29 kts 123°
2026-04-25 20:01 26.26347 50.64282 16 ft 31 kts 124°
2026-04-25 20:01 26.26229 50.64485 14 ft 31 kts 123°
2026-04-25 20:02 26.26110 50.64693 14 ft 32 kts 123°
2026-04-25 20:02 26.26018 50.64851 16 ft 20 kts 115°
2026-04-25 20:02 26.26033 50.64946 16 ft 7 kts 53°
2026-04-25 20:02 26.26043 50.64958 16 ft 0 kts 44°
2026-04-25 20:03 26.26043 50.64959 16 ft 0 kts 44°
2026-04-25 20:03 26.26060 50.64975 17 ft 8 kts 37°
2026-04-25 20:03 26.26151 50.64960 17 ft 21 kts 307°
2026-04-25 20:04 26.26277 50.64750 16 ft 56 kts 303°
2026-04-25 20:04 26.26610 50.64176 15 ft 117 kts 302°
2026-04-25 20:04 26.27141 50.63260 30 ft 161 kts 303°
2026-04-25 20:04 26.27742 50.62237 660 ft 153 kts 305°
2026-04-25 20:05 26.28345 50.61234 1223 ft 156 kts 308°
2026-04-25 20:05 26.28991 50.60269 1781 ft 157 kts 316°
2026-04-25 20:05 26.29902 50.59562 2158 ft 167 kts 347°
2026-04-25 20:05 26.31084 50.59563 2592 ft 180 kts 19°
2026-04-25 20:06 26.32176 50.60358 3017 ft 200 kts 48°
2026-04-25 20:06 26.32886 50.61807 3344 ft 228 kts 70°
2026-04-25 20:06 26.33308 50.63595 3771 ft 251 kts 79°
2026-04-25 20:06 26.33565 50.65593 4265 ft 272 kts 83°
2026-04-25 20:07 26.33821 50.67737 5007 ft 280 kts 81°
2026-04-25 20:07 26.34270 50.69837 5981 ft 279 kts 71°
2026-04-25 20:07 26.35121 50.71778 6819 ft 284 kts 53°
2026-04-25 20:07 26.36484 50.73415 7490 ft 292 kts 40°
2026-04-25 20:08 26.38090 50.74825 8283 ft 296 kts 34°
2026-04-25 20:08 26.39807 50.76140 9107 ft 300 kts 32°
2026-04-25 20:08 26.41558 50.77427 9913 ft 305 kts 31°
2026-04-25 20:08 26.43359 50.78749 10474 ft 319 kts 31°
2026-04-25 20:09 26.45286 50.80176 10714 ft 343 kts 32°
2026-04-25 20:09 26.47307 50.81688 11110 ft 358 kts 32°
2026-04-25 20:09 26.49400 50.83266 11861 ft 361 kts 32°
2026-04-25 20:09 26.51494 50.84849 12642 ft 365 kts 32°
2026-04-25 20:10 26.52893 50.85907 13147 ft 368 kts 32°
2026-04-25 20:10 26.55724 50.88047 14098 ft 373 kts 32°
2026-04-25 20:10 26.57889 50.89684 14742 ft 378 kts 32°
2026-04-25 20:10 26.60082 50.91342 15393 ft 383 kts 32°
2026-04-25 20:11 26.62286 50.93095 16035 ft 389 kts 39°
2026-04-25 20:11 26.64277 50.95136 16653 ft 394 kts 41°
2026-04-25 20:11 26.66324 50.97261 17280 ft 399 kts 41°
2026-04-25 20:11 26.68323 50.99352 17875 ft 404 kts 41°
2026-04-25 20:12 26.70403 51.01541 18462 ft 409 kts 41°
2026-04-25 20:12 26.72445 51.03698 19243 ft 402 kts 41°
2026-04-25 20:12 26.74309 51.05939 20332 ft 390 kts 53°
2026-04-25 20:12 26.74817 51.06815 20721 ft 385 kts 59°
2026-04-25 20:13 26.76073 51.11380 22523 ft 359 kts 89°
2026-04-25 20:13 26.75947 51.14142 23174 ft 355 kts 105°
2026-04-25 20:13 26.75221 51.16790 23321 ft 364 kts 116°
2026-04-25 20:13 26.74314 51.19504 23470 ft 380 kts 116°
2026-04-25 20:14 26.73378 51.22339 23601 ft 395 kts 115°
2026-04-25 20:14 26.72414 51.25297 23729 ft 409 kts 115°
2026-04-25 20:14 26.71441 51.28312 23856 ft 423 kts 114°
2026-04-25 20:14 26.70427 51.31462 23978 ft 437 kts 114°
2026-04-25 20:15 26.69383 51.34710 24101 ft 450 kts 114°
2026-04-25 20:15 26.68312 51.38041 24364 ft 458 kts 114°
2026-04-25 20:15 26.67238 51.41385 24749 ft 460 kts 114°
2026-04-25 20:15 26.66157 51.44752 24891 ft 461 kts 114°
2026-04-25 20:16 26.65062 51.48167 24932 ft 461 kts 114°
2026-04-25 20:16 26.63988 51.51523 24928 ft 460 kts 114°
2026-04-25 20:16 26.62915 51.54867 24928 ft 461 kts 114°
2026-04-25 20:16 26.61836 51.58223 24930 ft 460 kts 114°
2026-04-25 20:17 26.60751 51.61595 24928 ft 460 kts 114°
2026-04-25 20:17 26.59668 51.64954 24928 ft 460 kts 114°
2026-04-25 20:17 26.58570 51.68357 24924 ft 460 kts 114°
2026-04-25 20:17 26.57490 51.71698 24923 ft 460 kts 114°
2026-04-25 20:18 26.56400 51.75070 24923 ft 459 kts 114°
2026-04-25 20:18 26.55316 51.78420 24921 ft 460 kts 114°
2026-04-25 20:18 26.54238 51.81753 24922 ft 460 kts 114°
2026-04-25 20:18 26.53152 51.85107 24915 ft 460 kts 114°
2026-04-25 20:19 26.52057 51.88482 24919 ft 460 kts 114°
2026-04-25 20:19 26.50958 51.91814 24916 ft 460 kts 114°
2026-04-25 20:19 26.49833 51.95192 24920 ft 459 kts 114°
2026-04-25 20:19 26.48731 51.98493 24915 ft 459 kts 114°
2026-04-25 20:20 26.47613 52.01844 24919 ft 459 kts 114°
2026-04-25 20:20 26.46497 52.05190 24915 ft 459 kts 114°
2026-04-25 20:20 26.45749 52.07435 24915 ft 459 kts 114°
2026-04-25 20:20 26.44270 52.11869 24911 ft 458 kts 114°
2026-04-25 20:21 26.43525 52.14101 24914 ft 458 kts 114°
2026-04-25 20:21 26.42415 52.17425 24913 ft 458 kts 114°
2026-04-25 20:21 26.41309 52.20729 24908 ft 458 kts 114°
2026-04-25 20:21 26.39811 52.25202 24911 ft 458 kts 114°
2026-04-25 20:22 26.39078 52.27387 24911 ft 458 kts 114°
2026-04-25 20:22 26.38326 52.29630 24911 ft 458 kts 115°
2026-04-25 20:22 26.36842 52.34051 24908 ft 458 kts 115°
2026-04-25 20:22 26.35719 52.37390 24906 ft 458 kts 115°
2026-04-25 20:23 26.34589 52.40660 24909 ft 457 kts 116°
2026-04-25 20:23 26.33342 52.43934 24909 ft 456 kts 117°
2026-04-25 20:23 26.32069 52.47176 24901 ft 456 kts 118°
2026-04-25 20:23 26.30802 52.50403 24902 ft 455 kts 117°
2026-04-25 20:24 26.29532 52.53668 24905 ft 456 kts 117°
2026-04-25 20:24 26.28289 52.56884 24906 ft 456 kts 117°
2026-04-25 20:24 26.27036 52.60137 24905 ft 455 kts 117°
2026-04-25 20:24 26.25784 52.63389 24906 ft 455 kts 117°
2026-04-25 20:25 26.24545 52.66608 24906 ft 455 kts 117°
2026-04-25 20:25 26.23293 52.69863 24905 ft 455 kts 117°
2026-04-25 20:25 26.22054 52.73101 24905 ft 455 kts 117°
2026-04-25 20:25 26.20814 52.76347 24905 ft 455 kts 117°
2026-04-25 20:26 26.19578 52.79580 24903 ft 455 kts 117°
2026-04-25 20:26 26.18335 52.82825 24903 ft 455 kts 117°
2026-04-25 20:26 26.17097 52.86054 24902 ft 455 kts 117°
2026-04-25 20:26 26.15847 52.89310 24900 ft 455 kts 117°
2026-04-25 20:27 26.14611 52.92525 24900 ft 455 kts 117°
2026-04-25 20:27 26.13365 52.95764 24899 ft 455 kts 117°
2026-04-25 20:27 26.12120 52.98999 24897 ft 455 kts 117°
2026-04-25 20:27 26.10873 53.02236 24897 ft 455 kts 117°
2026-04-25 20:28 26.09630 53.05477 24894 ft 455 kts 116°
2026-04-25 20:28 26.08425 53.08736 24895 ft 456 kts 116°
2026-04-25 20:28 26.07236 53.12004 24893 ft 456 kts 115°
2026-04-25 20:28 26.06046 53.15274 24895 ft 456 kts 115°
2026-04-25 20:29 26.04851 53.18539 24895 ft 456 kts 116°
2026-04-25 20:29 26.03667 53.21767 24892 ft 456 kts 116°
2026-04-25 20:29 26.02466 53.25026 24894 ft 456 kts 116°
2026-04-25 20:29 26.01263 53.28288 24892 ft 456 kts 116°
2026-04-25 20:30 26.00447 53.30500 24891 ft 456 kts 116°
2026-04-25 20:30 25.98850 53.34823 24892 ft 456 kts 116°
2026-04-25 20:30 25.97642 53.38090 24890 ft 457 kts 116°
2026-04-25 20:30 25.96434 53.41354 24892 ft 457 kts 116°
2026-04-25 20:31 25.95224 53.44622 24891 ft 457 kts 116°
2026-04-25 20:31 25.94010 53.47895 24889 ft 457 kts 116°
2026-04-25 20:31 25.92803 53.51168 24847 ft 458 kts 115°
2026-04-25 20:31 25.91652 53.54463 24622 ft 457 kts 114°
2026-04-25 20:32 25.90532 53.57764 24401 ft 455 kts 114°
2026-04-25 20:32 25.89417 53.61051 24173 ft 453 kts 114°
2026-04-25 20:32 25.88302 53.64318 23950 ft 452 kts 114°
2026-04-25 20:32 25.87177 53.67593 23729 ft 451 kts 114°
2026-04-25 20:33 25.86056 53.70843 23513 ft 450 kts 114°
2026-04-25 20:33 25.84943 53.74061 23260 ft 448 kts 114°
2026-04-25 20:33 25.83821 53.77297 22984 ft 446 kts 114°
2026-04-25 20:33 25.83088 53.79407 22820 ft 444 kts 114°
2026-04-25 20:34 25.81601 53.83689 22456 ft 440 kts 114°
2026-04-25 20:34 25.80511 53.86822 22053 ft 435 kts 114°
2026-04-25 20:34 25.79423 53.89949 21565 ft 430 kts 114°
2026-04-25 20:34 25.78350 53.93031 21056 ft 426 kts 114°
2026-04-25 20:35 25.77284 53.96089 20543 ft 421 kts 114°
2026-04-25 20:35 25.76244 53.99071 20056 ft 416 kts 114°
2026-04-25 20:35 25.75202 54.02071 19563 ft 412 kts 112°
2026-04-25 20:35 25.74262 54.05036 19095 ft 408 kts 111°
2026-04-25 20:36 25.73372 54.08003 18613 ft 403 kts 110°
2026-04-25 20:36 25.72485 54.10974 18146 ft 399 kts 110°
2026-04-25 20:36 25.71608 54.13880 17592 ft 395 kts 110°
2026-04-25 20:36 25.70730 54.16760 17041 ft 392 kts 110°
2026-04-25 20:37 25.69862 54.19591 16511 ft 388 kts 111°
2026-04-25 20:37 25.69000 54.22390 15993 ft 385 kts 111°
2026-04-25 20:37 25.68129 54.25215 15460 ft 382 kts 111°
2026-04-25 20:37 25.67271 54.27991 14962 ft 379 kts 111°
2026-04-25 20:38 25.66422 54.30740 14458 ft 376 kts 111°
2026-04-25 20:38 25.65586 54.33445 13985 ft 373 kts 111°
2026-04-25 20:38 25.64744 54.36164 13472 ft 371 kts 111°
2026-04-25 20:38 25.63904 54.38871 12936 ft 368 kts 111°
2026-04-25 20:39 25.63078 54.41530 12416 ft 365 kts 111°
2026-04-25 20:39 25.62250 54.44193 11906 ft 363 kts 110°
2026-04-25 20:39 25.61433 54.46819 11413 ft 359 kts 110°
2026-04-25 20:39 25.60898 54.48539 11097 ft 358 kts 110°
2026-04-25 20:40 25.59822 54.51992 10478 ft 354 kts 110°
2026-04-25 20:40 25.59031 54.54532 10316 ft 341 kts 110°
2026-04-25 20:40 25.58293 54.56987 10186 ft 328 kts 105°
2026-04-25 20:40 25.57967 54.59436 10070 ft 315 kts 92°
2026-04-25 20:41 25.58127 54.61790 9898 ft 306 kts 82°
2026-04-25 20:41 25.58435 54.64116 9524 ft 304 kts 82°
2026-04-25 20:41 25.58733 54.66434 9130 ft 302 kts 82°
2026-04-25 20:41 25.59021 54.68718 8757 ft 300 kts 82°
2026-04-25 20:42 25.59309 54.71011 8372 ft 297 kts 82°
2026-04-25 20:42 25.59593 54.73272 8088 ft 292 kts 81°
2026-04-25 20:42 25.59867 54.75455 8001 ft 289 kts 81°
2026-04-25 20:42 25.60151 54.77706 7996 ft 298 kts 81°
2026-04-25 20:43 25.60437 54.79979 7998 ft 295 kts 81°
2026-04-25 20:43 25.60719 54.82226 7995 ft 295 kts 81°
2026-04-25 20:43 25.60995 54.84477 7997 ft 296 kts 84°
2026-04-25 20:43 25.60924 54.86728 7995 ft 296 kts 101°
2026-04-25 20:44 25.60279 54.88891 7996 ft 296 kts 114°
2026-04-25 20:44 25.59447 54.90982 8000 ft 296 kts 114°
2026-04-25 20:44 25.58617 54.93095 8001 ft 297 kts 114°
2026-04-25 20:44 25.57797 54.95194 8001 ft 296 kts 113°
2026-04-25 20:45 25.56985 54.97282 7995 ft 296 kts 113°
2026-04-25 20:45 25.56170 54.99375 8001 ft 296 kts 113°
2026-04-25 20:45 25.55360 55.01455 7999 ft 296 kts 113°
2026-04-25 20:45 25.54521 55.03549 7998 ft 296 kts 117°
2026-04-25 20:46 25.53507 55.05524 7997 ft 296 kts 120°
2026-04-25 20:46 25.52482 55.07488 7998 ft 295 kts 120°
2026-04-25 20:46 25.51453 55.09470 7998 ft 295 kts 120°
2026-04-25 20:46 25.50437 55.11430 7999 ft 295 kts 120°
2026-04-25 20:47 25.49412 55.13409 7996 ft 295 kts 120°
2026-04-25 20:47 25.48393 55.15372 8002 ft 295 kts 120°
2026-04-25 20:47 25.47371 55.17341 8003 ft 295 kts 120°
2026-04-25 20:47 25.46332 55.19315 8002 ft 295 kts 123°
2026-04-25 20:48 25.45087 55.21090 8007 ft 294 kts 133°
2026-04-25 20:48 25.43700 55.22770 8008 ft 294 kts 133°
2026-04-25 20:48 25.42339 55.24434 8008 ft 294 kts 132°
2026-04-25 20:48 25.40960 55.26129 8008 ft 294 kts 132°
2026-04-25 20:49 25.39607 55.27792 8014 ft 294 kts 132°
2026-04-25 20:49 25.38227 55.29487 8012 ft 294 kts 132°
2026-04-25 20:49 25.36869 55.31153 8000 ft 292 kts 133°
2026-04-25 20:49 25.35366 55.32669 7998 ft 293 kts 144°
2026-04-25 20:50 25.33641 55.33853 7946 ft 291 kts 153°
2026-04-25 20:50 25.31839 55.34890 7667 ft 291 kts 153°
2026-04-25 20:50 25.30047 55.35932 7303 ft 291 kts 152°
2026-04-25 20:50 25.28262 55.36976 6895 ft 291 kts 152°
2026-04-25 20:51 25.26473 55.38024 6520 ft 290 kts 152°
2026-04-25 20:51 25.24683 55.39072 6258 ft 285 kts 152°
2026-04-25 20:51 25.22925 55.40103 6143 ft 292 kts 152°
2026-04-25 20:51 25.21114 55.41164 6049 ft 290 kts 152°
2026-04-25 20:52 25.19348 55.42199 6014 ft 289 kts 152°
2026-04-25 20:52 25.18162 55.42892 6015 ft 290 kts 152°
2026-04-25 20:52 25.15786 55.44282 6016 ft 290 kts 152°
2026-04-25 20:52 25.13984 55.45334 6019 ft 290 kts 152°
2026-04-25 20:53 25.12244 55.46390 5972 ft 282 kts 146°
2026-04-25 20:53 25.10823 55.47766 5842 ft 265 kts 128°
2026-04-25 20:53 25.09823 55.49407 5706 ft 247 kts 119°
2026-04-25 20:53 25.08951 55.51004 5395 ft 241 kts 120°
2026-04-25 20:54 25.08077 55.52574 5007 ft 238 kts 120°
2026-04-25 20:54 25.07240 55.54066 4867 ft 223 kts 120°
2026-04-25 20:54 25.06443 55.55485 4719 ft 210 kts 120°
2026-04-25 20:54 25.05685 55.56833 4391 ft 208 kts 120°
2026-04-25 20:55 25.05080 55.58270 3992 ft 204 kts 94°
2026-04-25 20:55 25.05271 55.59749 3596 ft 196 kts 57°
2026-04-25 20:55 25.06191 55.60803 3246 ft 187 kts 25°
2026-04-25 20:55 25.07436 55.61040 3137 ft 190 kts 346°
2026-04-25 20:56 25.08642 55.60489 3102 ft 184 kts 332°
2026-04-25 20:56 25.09774 55.59836 3028 ft 185 kts 332°
2026-04-25 20:56 25.10923 55.59172 3024 ft 185 kts 332°
2026-04-25 20:56 25.12058 55.58515 3026 ft 185 kts 332°
2026-04-25 20:57 25.13129 55.57741 3024 ft 185 kts 319°
2026-04-25 20:57 25.13996 55.56680 3023 ft 186 kts 308°
2026-04-25 20:57 25.14719 55.55507 3019 ft 187 kts 303°
2026-04-25 20:57 25.15399 55.54294 3015 ft 177 kts 303°
2026-04-25 20:58 25.15811 55.53551 3004 ft 165 kts 303°
2026-04-25 20:58 25.16423 55.52448 2648 ft 170 kts 303°
2026-04-25 20:58 25.17031 55.51325 2258 ft 172 kts 301°
2026-04-25 20:58 25.17591 55.50154 1812 ft 174 kts 298°
2026-04-25 20:59 25.18143 55.48964 1463 ft 170 kts 307°
2026-04-25 20:59 25.18853 55.48004 1384 ft 153 kts 308°
2026-04-25 20:59 25.19410 55.47050 1342 ft 141 kts 303°
2026-04-25 20:59 25.19900 55.46168 1272 ft 134 kts 304°
2026-04-25 21:00 25.20397 55.45274 1217 ft 136 kts 303°
2026-04-25 21:00 25.20728 55.44677 1106 ft 137 kts 303°
2026-04-25 21:00 25.21887 55.42583 729 ft 138 kts 302°
2026-04-25 21:01 25.22385 55.41681 564 ft 139 kts 302°
2026-04-25 21:01 25.22898 55.40755 375 ft 141 kts 302°
2026-04-25 21:01 25.23399 55.39822 174 ft 140 kts 302°
2026-04-25 21:01 25.23904 55.38927 55 ft 128 kts 301°
2026-04-25 21:02 25.24259 55.38281 54 ft 71 kts 302°
2026-04-25 21:02 25.24459 55.37923 45 ft 50 kts 302°
2026-04-25 21:02 25.24597 55.37619 36 ft 42 kts 281°
2026-04-25 21:02 25.24608 55.37422 34 ft 0 kts 262°
2026-04-25 21:03 25.24605 55.37371 33 ft 15 kts 270°
2026-04-25 21:04 25.24644 55.37229 33 ft 20 kts 299°
2026-04-25 21:04 25.24674 55.37169 33 ft 0 kts 300°
2026-04-25 21:05 25.24677 55.37165 33 ft 0 kts 300°
2026-04-25 21:05 25.24679 55.37160 31 ft 4 kts 301°
2026-04-25 21:05 25.24728 55.37077 30 ft 22 kts 304°
2026-04-25 21:06 25.24829 55.36886 29 ft 36 kts 294°
2026-04-25 21:06 25.24930 55.36595 27 ft 43 kts 301°
2026-04-25 21:06 25.25089 55.36300 21 ft 47 kts 300°
2026-04-25 21:06 25.25196 55.36107 17 ft 38 kts 301°
2026-04-25 21:07 25.25381 55.35775 13 ft 40 kts 301°
2026-04-25 21:07 25.25523 55.35517 12 ft 36 kts 299°
2026-04-25 21:07 25.25637 55.35308 15 ft 29 kts 304°
2026-04-25 21:07 25.25744 55.35121 19 ft 29 kts 300°
2026-04-25 21:08 25.25847 55.34927 22 ft 30 kts 301°
2026-04-25 21:08 25.25956 55.34738 28 ft 29 kts 304°
2026-04-25 21:08 25.26059 55.34547 26 ft 29 kts 302°
2026-04-25 21:08 25.26167 55.34351 27 ft 31 kts 302°
2026-04-25 21:09 25.26233 55.34223 27 ft 6 kts 284°
2026-04-25 21:09 25.26212 55.34187 28 ft 7 kts 224°
2026-04-25 21:09 25.26168 55.34144 28 ft 10 kts 212°
2026-04-25 21:10 25.26103 55.34129 28 ft 8 kts 185°
2026-04-25 21:10 25.26058 55.34126 27 ft 0 kts 183°